Location: Kawakawa
(35.3830°S, 174.0670°E)
Time: 18:31:21
(UTC+13:00)

Altair - Pass Details

Date: 06 December 2019
Orbit: 1502 x 1682 km, 47.2° (Epoch: 21 January)

Event Time Altitude Azimuth Distance (km) Brightness Sun altitude
Rises 08:47:24 0° 358° (N) 4,722 10.0 31.2°
Reaches altitude 10° 08:51:32 10° 14° (NNE) 3,778 9.7 32.1°
Maximum altitude 08:57:55 20° 56° (ENE) 3,115 10.1 33.4°
Drops below altitude 10° 09:04:26 10° 98° (E) 3,893 11.0 34.7°
Sets 09:08:44 0° 113° (ESE) 4,912 11.0 35.6°
